contact:dominique.lefevre@mio.osupytheas.fr, maurice.libes@osupytheas.fr, didier.mallarino@osupytheas.fr
Project:EMSO http://www.emso-fr.org/EMSO-France
Depth: 2436.0 m
Title:EMSO Ligure Ouest : Data MII capteur MICROCAT
DateTime_Computer,Latitude,Longitude,Temperature,Conductivity,Pressure,DateTime_Instrument
DateTime_Computer,Latitude,Longitude,degC,S m-1,dbar,DateTime_Instrument
2021-02-12T00:02:53Z,42.805,6.029,13.3014,4.60036,2470.24,2021-2-12T02:03:57Z
2021-02-12T00:05:56Z,42.805,6.029,13.3010,4.60059,2470.194,2021-2-12T02:07:00Z
2021-02-12T00:08:59Z,42.805,6.029,13.3007,4.60042,2470.25,2021-2-12T02:10:03Z
2021-02-12T00:12:02Z,42.805,6.029,13.3016,4.60056,2470.203,2021-2-12T02:13:06Z
2021-02-12T00:15:05Z,42.805,6.029,13.3019,4.60036,2470.227,2021-2-12T02:16:09Z
2021-02-12T00:18:09Z,42.805,6.029,13.3011,4.60050,2470.24,2021-2-12T02:19:12Z
2021-02-12T00:21:12Z,42.805,6.029,13.3019,4.60037,2470.24,2021-2-12T02:22:15Z
2021-02-12T00:24:15Z,42.805,6.029,13.3004,4.60054,2470.217,2021-2-12T02:25:18Z
2021-02-12T00:27:18Z,42.805,6.029,13.3014,4.60055,2470.203,2021-2-12T02:28:22Z
2021-02-12T00:30:21Z,42.805,6.029,13.3011,4.60029,2470.24,2021-2-12T02:31:25Z
2021-02-12T00:33:24Z,42.805,6.029,13.3028,4.60039,2470.194,2021-2-12T02:34:28Z
2021-02-12T00:36:27Z,42.805,6.029,13.3011,4.60056,2470.217,2021-2-12T02:37:31Z
2021-02-12T00:39:30Z,42.805,6.029,13.3014,4.60039,2470.24,2021-2-12T02:40:34Z
2021-02-12T00:42:34Z,42.805,6.029,13.3008,4.60031,2470.217,2021-2-12T02:43:37Z
2021-02-12T00:45:37Z,42.805,6.029,13.3004,4.60050,2470.18,2021-2-12T02:46:40Z
2021-02-12T00:48:40Z,42.805,6.029,13.3016,4.60046,2470.18,2021-2-12T02:49:43Z
2021-02-12T00:51:43Z,42.805,6.029,13.3014,4.60027,2470.227,2021-2-12T02:52:47Z
2021-02-12T00:54:46Z,42.805,6.029,13.3008,4.60044,2470.171,2021-2-12T02:55:50Z
2021-02-12T00:57:49Z,42.805,6.029,13.3009,4.60051,2470.203,2021-2-12T02:58:53Z
2021-02-12T01:00:52Z,42.805,6.029,13.3002,4.60041,2470.217,2021-2-12T03:01:56Z
2021-02-12T01:03:55Z,42.805,6.029,13.3015,4.60049,2470.194,2021-2-12T03:04:59Z
2021-02-12T01:06:59Z,42.805,6.029,13.3006,4.60039,2470.194,2021-2-12T03:08:02Z
2021-02-12T01:10:02Z,42.805,6.029,13.3011,4.60020,2470.18,2021-2-12T03:11:05Z
2021-02-12T01:13:05Z,42.805,6.029,13.3002,4.60045,2470.217,2021-2-12T03:14:08Z
2021-02-12T01:16:08Z,42.805,6.029,13.3006,4.60051,2470.171,2021-2-12T03:17:12Z
2021-02-12T01:19:11Z,42.805,6.029,13.3019,4.60014,2470.156,2021-2-12T03:20:15Z
2021-02-12T01:22:14Z,42.805,6.029,13.3015,4.60028,2470.18,2021-2-12T03:23:18Z
2021-02-12T01:25:17Z,42.805,6.029,13.3006,4.60040,2470.24,2021-2-12T03:26:21Z
2021-02-12T01:28:20Z,42.805,6.029,13.3019,4.60029,2470.194,2021-2-12T03:29:24Z
2021-02-12T01:31:24Z,42.805,6.029,13.3018,4.60039,2470.156,2021-2-12T03:32:27Z
2021-02-12T01:34:27Z,42.805,6.029,13.3009,4.60032,2470.203,2021-2-12T03:35:30Z
2021-02-12T01:37:30Z,42.805,6.029,13.2999,4.60037,2470.18,2021-2-12T03:38:33Z
2021-02-12T01:40:33Z,42.805,6.029,13.3011,4.60032,2470.156,2021-2-12T03:41:37Z
2021-02-12T01:43:36Z,42.805,6.029,13.3007,4.60053,2470.203,2021-2-12T03:44:40Z
2021-02-12T01:46:39Z,42.805,6.029,13.3004,4.60041,2470.194,2021-2-12T03:47:43Z
2021-02-12T01:49:42Z,42.805,6.029,13.3010,4.60046,2470.194,2021-2-12T03:50:46Z
2021-02-12T01:52:45Z,42.805,6.029,13.3003,4.60027,2470.156,2021-2-12T03:53:49Z
2021-02-12T01:55:49Z,42.805,6.029,13.3007,4.60031,2470.171,2021-2-12T03:56:52Z
2021-02-12T01:58:52Z,42.805,6.029,13.3020,4.60048,2470.194,2021-2-12T03:59:55Z
2021-02-12T02:01:55Z,42.805,6.029,13.3023,4.60031,2470.194,2021-2-12T04:02:58Z
2021-02-12T02:04:58Z,42.805,6.029,13.3001,4.60028,2470.203,2021-2-12T04:06:02Z
2021-02-12T02:08:01Z,42.805,6.029,13.3006,4.60031,2470.156,2021-2-12T04:09:05Z
2021-02-12T02:11:04Z,42.805,6.029,13.3006,4.60020,2470.203,2021-2-12T04:12:08Z
2021-02-12T02:14:07Z,42.805,6.029,13.3001,4.60016,2470.156,2021-2-12T04:15:11Z
2021-02-12T02:17:10Z,42.805,6.029,13.3004,4.60040,2470.194,2021-2-12T04:18:14Z
2021-02-12T02:20:14Z,42.805,6.029,13.3004,4.60032,2470.18,2021-2-12T04:21:17Z
2021-02-12T02:23:17Z,42.805,6.029,13.2998,4.60019,2470.171,2021-2-12T04:24:20Z
2021-02-12T02:26:20Z,42.805,6.029,13.3000,4.60024,2470.24,2021-2-12T04:27:23Z
2021-02-12T02:29:23Z,42.805,6.029,13.2996,4.60031,2470.194,2021-2-12T04:30:27Z
2021-02-12T02:32:26Z,42.805,6.029,13.3011,4.60038,2470.18,2021-2-12T04:33:30Z
2021-02-12T02:35:29Z,42.805,6.029,13.3000,4.60034,2470.203,2021-2-12T04:36:33Z
2021-02-12T02:38:32Z,42.805,6.029,13.3000,4.60019,2470.194,2021-2-12T04:39:36Z
2021-02-12T02:41:35Z,42.805,6.029,13.3017,4.60043,2470.194,2021-2-12T04:42:39Z
2021-02-12T02:44:39Z,42.805,6.029,13.3000,4.60046,2470.18,2021-2-12T04:45:42Z
2021-02-12T02:47:42Z,42.805,6.029,13.3000,4.60031,2470.194,2021-2-12T04:48:45Z
2021-02-12T02:50:45Z,42.805,6.029,13.3009,4.60039,2470.18,2021-2-12T04:51:48Z
2021-02-12T02:53:48Z,42.805,6.029,13.3009,4.60052,2470.194,2021-2-12T04:54:52Z
2021-02-12T02:56:51Z,42.805,6.029,13.2997,4.60041,2470.203,2021-2-12T04:57:55Z
2021-02-12T02:59:54Z,42.805,6.029,13.3004,4.60034,2470.156,2021-2-12T05:00:58Z
2021-02-12T03:02:57Z,42.805,6.029,13.3008,4.60044,2470.203,2021-2-12T05:04:01Z
2021-02-12T03:06:00Z,42.805,6.029,13.2998,4.60046,2470.171,2021-2-12T05:07:04Z
2021-02-12T03:09:04Z,42.805,6.029,13.3006,4.60033,2470.203,2021-2-12T05:10:07Z
2021-02-12T03:12:07Z,42.805,6.029,13.3004,4.60054,2470.18,2021-2-12T05:13:10Z
2021-02-12T03:15:10Z,42.805,6.029,13.3012,4.60041,2470.217,2021-2-12T05:16:13Z
2021-02-12T03:18:13Z,42.805,6.029,13.3002,4.60064,2470.227,2021-2-12T05:19:17Z
2021-02-12T03:21:16Z,42.805,6.029,13.2999,4.60037,2470.24,2021-2-12T05:22:20Z
2021-02-12T03:24:19Z,42.805,6.029,13.3000,4.60034,2470.18,2021-2-12T05:25:23Z
2021-02-12T03:27:22Z,42.805,6.029,13.3006,4.60042,2470.24,2021-2-12T05:28:26Z
2021-02-12T03:30:25Z,42.805,6.029,13.3004,4.60062,2470.217,2021-2-12T05:31:29Z
2021-02-12T03:33:29Z,42.805,6.029,13.3036,4.60026,2470.264,2021-2-12T05:34:32Z
2021-02-12T03:36:32Z,42.805,6.029,13.3002,4.60052,2470.25,2021-2-12T05:37:35Z
2021-02-12T03:39:35Z,42.805,6.029,13.3001,4.60065,2470.203,2021-2-12T05:40:38Z
2021-02-12T03:42:38Z,42.805,6.029,13.3015,4.60069,2470.25,2021-2-12T05:43:42Z
2021-02-12T03:45:41Z,42.805,6.029,13.2998,4.60042,2470.24,2021-2-12T05:46:45Z
2021-02-12T03:48:44Z,42.805,6.029,13.3006,4.60061,2470.24,2021-2-12T05:49:48Z
2021-02-12T03:51:47Z,42.805,6.029,13.3003,4.60067,2470.227,2021-2-12T05:52:51Z
2021-02-12T03:54:50Z,42.805,6.029,13.3012,4.60033,2470.203,2021-2-12T05:55:54Z
2021-02-12T03:57:54Z,42.805,6.029,13.2998,4.60029,2470.273,2021-2-12T05:58:57Z
2021-02-12T04:00:57Z,42.805,6.029,13.3006,4.60069,2470.227,2021-2-12T06:02:00Z
2021-02-12T04:04:00Z,42.805,6.029,13.2998,4.60035,2470.25,2021-2-12T06:05:03Z
2021-02-12T04:07:03Z,42.805,6.029,13.2999,4.60034,2470.25,2021-2-12T06:08:07Z
2021-02-12T04:10:06Z,42.805,6.029,13.3006,4.60048,2470.264,2021-2-12T06:11:10Z
2021-02-12T04:13:09Z,42.805,6.029,13.3002,4.60067,2470.227,2021-2-12T06:14:13Z
2021-02-12T04:16:12Z,42.805,6.029,13.3001,4.60042,2470.287,2021-2-12T06:17:16Z
2021-02-12T04:19:15Z,42.805,6.029,13.2998,4.60053,2470.287,2021-2-12T06:20:19Z
2021-02-12T04:22:19Z,42.805,6.029,13.2993,4.60027,2470.273,2021-2-12T06:23:22Z
2021-02-12T04:25:22Z,42.805,6.029,13.2996,4.60034,2470.287,2021-2-12T06:26:25Z
2021-02-12T04:28:25Z,42.805,6.029,13.3004,4.60044,2470.273,2021-2-12T06:29:28Z
2021-02-12T04:31:28Z,42.805,6.029,13.3005,4.60044,2470.264,2021-2-12T06:32:32Z
2021-02-12T04:34:31Z,42.805,6.029,13.3002,4.60061,2470.31,2021-2-12T06:35:35Z
2021-02-12T04:37:34Z,42.805,6.029,13.3004,4.60052,2470.264,2021-2-12T06:38:38Z
2021-02-12T04:40:37Z,42.805,6.029,13.3009,4.60047,2470.31,2021-2-12T06:41:41Z
2021-02-12T04:43:40Z,42.805,6.029,13.2997,4.60038,2470.297,2021-2-12T06:44:44Z
2021-02-12T04:46:44Z,42.805,6.029,13.2998,4.60031,2470.31,2021-2-12T06:47:47Z
2021-02-12T04:49:47Z,42.805,6.029,13.2994,4.60025,2470.297,2021-2-12T06:50:50Z
2021-02-12T04:52:50Z,42.805,6.029,13.2998,4.60028,2470.32,2021-2-12T06:53:53Z
2021-02-12T04:55:53Z,42.805,6.029,13.3009,4.60039,2470.297,2021-2-12T06:56:57Z
2021-02-12T04:58:56Z,42.805,6.029,13.3006,4.60049,2470.32,2021-2-12T07:00:00Z
2021-02-12T05:01:59Z,42.805,6.029,13.2998,4.60020,2470.32,2021-2-12T07:03:03Z
2021-02-12T05:05:02Z,42.805,6.029,13.3005,4.60026,2470.334,2021-2-12T07:06:06Z
2021-02-12T05:08:05Z,42.805,6.029,13.3006,4.60028,2470.32,2021-2-12T07:09:09Z
2021-02-12T05:11:08Z,42.805,6.029,13.3001,4.60033,2470.297,2021-2-12T07:12:12Z
2021-02-12T05:14:12Z,42.805,6.029,13.2991,4.60028,2470.357,2021-2-12T07:15:15Z
2021-02-12T05:17:15Z,42.805,6.029,13.3004,4.60035,2470.38,2021-2-12T07:18:18Z
2021-02-12T05:20:18Z,42.805,6.029,13.3004,4.60046,2470.334,2021-2-12T07:21:22Z
2021-02-12T05:23:21Z,42.805,6.029,13.3000,4.60022,2470.366,2021-2-12T07:24:25Z
2021-02-12T05:26:24Z,42.805,6.029,13.2997,4.60021,2470.343,2021-2-12T07:27:28Z
2021-02-12T05:29:27Z,42.805,6.029,13.3004,4.60037,2470.38,2021-2-12T07:30:31Z
2021-02-12T05:32:30Z,42.805,6.029,13.3001,4.60032,2470.39,2021-2-12T07:33:34Z
2021-02-12T05:35:33Z,42.805,6.029,13.2994,4.60034,2470.366,2021-2-12T07:36:37Z
2021-02-12T05:38:37Z,42.805,6.029,13.2996,4.60020,2470.39,2021-2-12T07:39:40Z
2021-02-12T05:41:40Z,42.805,6.029,13.2996,4.60039,2470.404,2021-2-12T07:42:43Z
2021-02-12T05:44:43Z,42.805,6.029,13.2998,4.60027,2470.38,2021-2-12T07:45:47Z
2021-02-12T05:47:46Z,42.805,6.029,13.2998,4.60055,2470.38,2021-2-12T07:48:50Z
2021-02-12T05:50:49Z,42.805,6.029,13.3011,4.60042,2470.38,2021-2-12T07:51:53Z
2021-02-12T05:53:52Z,42.805,6.029,13.3012,4.60039,2470.404,2021-2-12T07:54:56Z
2021-02-12T05:56:55Z,42.805,6.029,13.3014,4.60058,2470.38,2021-2-12T07:57:59Z
2021-02-12T05:59:58Z,42.805,6.029,13.2993,4.60031,2470.39,2021-2-12T08:01:02Z
2021-02-12T06:03:02Z,42.805,6.029,13.3006,4.60076,2470.413,2021-2-12T08:04:05Z
2021-02-12T06:06:05Z,42.805,6.029,13.3003,4.60075,2470.39,2021-2-12T08:07:08Z
2021-02-12T06:09:08Z,42.805,6.029,13.3020,4.60072,2470.413,2021-2-12T08:10:11Z
2021-02-12T06:12:11Z,42.805,6.029,13.3000,4.60068,2470.413,2021-2-12T08:13:15Z
2021-02-12T06:15:14Z,42.805,6.029,13.2998,4.60055,2470.39,2021-2-12T08:16:18Z
2021-02-12T06:18:17Z,42.805,6.029,13.3015,4.60053,2470.413,2021-2-12T08:19:21Z
2021-02-12T06:21:20Z,42.805,6.029,13.2996,4.60039,2470.427,2021-2-12T08:22:24Z
2021-02-12T06:24:23Z,42.805,6.029,13.3004,4.60043,2470.45,2021-2-12T08:25:27Z
2021-02-12T06:27:27Z,42.805,6.029,13.2999,4.60044,2470.437,2021-2-12T08:28:30Z
2021-02-12T06:30:30Z,42.805,6.029,13.2997,4.60024,2470.45,2021-2-12T08:31:33Z
2021-02-12T06:33:33Z,42.805,6.029,13.3000,4.60030,2470.45,2021-2-12T08:34:36Z
2021-02-12T06:36:36Z,42.805,6.029,13.3005,4.60040,2470.45,2021-2-12T08:37:40Z
2021-02-12T06:39:39Z,42.805,6.029,13.2998,4.60036,2470.474,2021-2-12T08:40:43Z
2021-02-12T06:42:42Z,42.805,6.029,13.3006,4.60020,2470.437,2021-2-12T08:43:46Z
2021-02-12T06:45:45Z,42.805,6.029,13.2998,4.60042,2470.474,2021-2-12T08:46:49Z
2021-02-12T06:48:48Z,42.805,6.029,13.3015,4.60047,2470.437,2021-2-12T08:49:52Z
2021-02-12T06:51:52Z,42.805,6.029,13.3029,4.60043,2470.474,2021-2-12T08:52:55Z
2021-02-12T06:54:55Z,42.805,6.029,13.3015,4.60062,2470.474,2021-2-12T08:55:58Z
2021-02-12T06:57:58Z,42.805,6.029,13.3009,4.60058,2470.437,2021-2-12T08:59:01Z
2021-02-12T07:01:01Z,42.805,6.029,13.3001,4.60057,2470.437,2021-2-12T09:02:05Z
2021-02-12T07:04:04Z,42.805,6.029,13.3004,4.60065,2470.474,2021-2-12T09:05:08Z
2021-02-12T07:07:07Z,42.805,6.029,13.3004,4.60039,2470.437,2021-2-12T09:08:11Z
2021-02-12T07:10:10Z,42.805,6.029,13.3008,4.60037,2470.437,2021-2-12T09:11:14Z
2021-02-12T07:13:13Z,42.805,6.029,13.2999,4.60044,2470.45,2021-2-12T09:14:17Z
2021-02-12T07:16:17Z,42.805,6.029,13.3009,4.60041,2470.474,2021-2-12T09:17:20Z
2021-02-12T07:19:20Z,42.805,6.029,13.3001,4.60034,2470.45,2021-2-12T09:20:23Z
2021-02-12T07:22:23Z,42.805,6.029,13.3009,4.60026,2470.474,2021-2-12T09:23:26Z
2021-02-12T07:25:26Z,42.805,6.029,13.2998,4.60029,2470.437,2021-2-12T09:26:30Z
2021-02-12T07:28:29Z,42.805,6.029,13.3004,4.60039,2470.483,2021-2-12T09:29:33Z
2021-02-12T07:31:32Z,42.805,6.029,13.3009,4.60032,2470.483,2021-2-12T09:32:36Z
2021-02-12T07:34:35Z,42.805,6.029,13.2998,4.60020,2470.46,2021-2-12T09:35:39Z
2021-02-12T07:37:38Z,42.805,6.029,13.3000,4.60029,2470.45,2021-2-12T09:38:42Z
2021-02-12T07:40:42Z,42.805,6.029,13.2998,4.60027,2470.474,2021-2-12T09:41:45Z
2021-02-12T07:43:45Z,42.805,6.029,13.2990,4.60049,2470.46,2021-2-12T09:44:48Z
2021-02-12T07:46:48Z,42.805,6.029,13.2999,4.60017,2470.497,2021-2-12T09:47:51Z
2021-02-12T07:49:51Z,42.805,6.029,13.2997,4.60028,2470.46,2021-2-12T09:50:55Z
2021-02-12T07:52:54Z,42.805,6.029,13.3001,4.60033,2470.46,2021-2-12T09:53:58Z
2021-02-12T07:55:57Z,42.805,6.029,13.2995,4.60022,2470.507,2021-2-12T09:57:01Z
2021-02-12T07:59:00Z,42.805,6.029,13.2996,4.60016,2470.474,2021-2-12T10:00:04Z
2021-02-12T08:02:03Z,42.805,6.029,13.3000,4.60033,2470.474,2021-2-12T10:03:07Z
2021-02-12T08:05:07Z,42.805,6.029,13.2998,4.60037,2470.497,2021-2-12T10:06:10Z
2021-02-12T08:08:10Z,42.805,6.029,13.2996,4.60026,2470.483,2021-2-12T10:09:13Z
2021-02-12T08:11:13Z,42.805,6.029,13.2998,4.60031,2470.483,2021-2-12T10:12:16Z
2021-02-12T08:14:16Z,42.805,6.029,13.2996,4.60033,2470.52,2021-2-12T10:15:20Z
2021-02-12T08:17:19Z,42.805,6.029,13.3004,4.60045,2470.474,2021-2-12T10:18:23Z
2021-02-12T08:20:22Z,42.805,6.029,13.3025,4.60034,2470.474,2021-2-12T10:21:26Z
2021-02-12T08:23:25Z,42.805,6.029,13.3021,4.60025,2470.483,2021-2-12T10:24:29Z
2021-02-12T08:26:28Z,42.805,6.029,13.3003,4.60033,2470.483,2021-2-12T10:27:32Z
2021-02-12T08:29:32Z,42.805,6.029,13.3000,4.60062,2470.474,2021-2-12T10:30:35Z
2021-02-12T08:32:35Z,42.805,6.029,13.3016,4.60060,2470.497,2021-2-12T10:33:38Z
2021-02-12T08:35:38Z,42.805,6.029,13.2995,4.60049,2470.497,2021-2-12T10:36:41Z
2021-02-12T08:38:41Z,42.805,6.029,13.2992,4.60042,2470.483,2021-2-12T10:39:45Z
2021-02-12T08:41:44Z,42.805,6.029,13.3010,4.60035,2470.45,2021-2-12T10:42:48Z
2021-02-12T08:44:47Z,42.805,6.029,13.3014,4.60039,2470.474,2021-2-12T10:45:51Z
2021-02-12T08:47:50Z,42.805,6.029,13.3011,4.60033,2470.52,2021-2-12T10:48:54Z
2021-02-12T08:50:53Z,42.805,6.029,13.2998,4.60066,2470.437,2021-2-12T10:51:57Z
2021-02-12T08:53:57Z,42.805,6.029,13.3004,4.60058,2470.46,2021-2-12T10:55:00Z
2021-02-12T08:57:00Z,42.805,6.029,13.3009,4.60029,2470.437,2021-2-12T10:58:03Z
2021-02-12T09:00:03Z,42.805,6.029,13.2997,4.60055,2470.474,2021-2-12T11:01:06Z
2021-02-12T09:03:06Z,42.805,6.029,13.3004,4.60048,2470.437,2021-2-12T11:04:10Z
2021-02-12T09:06:09Z,42.805,6.029,13.2993,4.60047,2470.437,2021-2-12T11:07:13Z
2021-02-12T09:09:12Z,42.805,6.029,13.2994,4.60022,2470.474,2021-2-12T11:10:16Z
2021-02-12T09:12:15Z,42.805,6.029,13.2993,4.60035,2470.474,2021-2-12T11:13:19Z
2021-02-12T09:15:18Z,42.805,6.029,13.3003,4.60035,2470.45,2021-2-12T11:16:22Z
2021-02-12T09:18:22Z,42.805,6.029,13.3011,4.60070,2470.45,2021-2-12T11:19:25Z
2021-02-12T09:21:25Z,42.805,6.029,13.3008,4.60066,2470.423,2021-2-12T11:22:28Z
2021-02-12T09:24:28Z,42.805,6.029,13.3008,4.60038,2470.483,2021-2-12T11:25:31Z
2021-02-12T09:27:31Z,42.805,6.029,13.2996,4.60028,2470.45,2021-2-12T11:28:35Z
2021-02-12T09:30:34Z,42.805,6.029,13.2990,4.60023,2470.474,2021-2-12T11:31:38Z
2021-02-12T09:33:37Z,42.805,6.029,13.2998,4.60049,2470.437,2021-2-12T11:34:41Z
2021-02-12T09:36:40Z,42.805,6.029,13.3004,4.60035,2470.46,2021-2-12T11:37:44Z
2021-02-12T09:39:43Z,42.805,6.029,13.3002,4.60026,2470.427,2021-2-12T11:40:47Z
2021-02-12T09:42:47Z,42.805,6.029,13.3013,4.60056,2470.427,2021-2-12T11:43:50Z
2021-02-12T09:45:50Z,42.805,6.029,13.3008,4.60033,2470.437,2021-2-12T11:46:53Z
2021-02-12T09:48:53Z,42.805,6.029,13.3008,4.60031,2470.413,2021-2-12T11:49:57Z
2021-02-12T09:51:56Z,42.805,6.029,13.3018,4.60050,2470.413,2021-2-12T11:53:00Z
2021-02-12T09:54:59Z,42.805,6.029,13.3013,4.60044,2470.437,2021-2-12T11:56:03Z
2021-02-12T09:58:02Z,42.805,6.029,13.3001,4.60039,2470.39,2021-2-12T11:59:06Z
2021-02-12T10:01:05Z,42.805,6.029,13.3011,4.60041,2470.404,2021-2-12T12:02:09Z
2021-02-12T10:04:08Z,42.805,6.029,13.3014,4.60061,2470.427,2021-2-12T12:05:12Z
2021-02-12T10:07:12Z,42.805,6.029,13.3002,4.60055,2470.427,2021-2-12T12:08:15Z
2021-02-12T10:10:15Z,42.805,6.029,13.3011,4.60056,2470.39,2021-2-12T12:11:18Z
2021-02-12T10:13:18Z,42.805,6.029,13.3017,4.60050,2470.413,2021-2-12T12:14:21Z
2021-02-12T10:16:21Z,42.805,6.029,13.2997,4.60049,2470.437,2021-2-12T12:17:25Z
2021-02-12T10:19:24Z,42.805,6.029,13.3002,4.60054,2470.45,2021-2-12T12:20:28Z
2021-02-12T10:22:27Z,42.805,6.029,13.3002,4.60021,2470.413,2021-2-12T12:23:31Z
2021-02-12T10:25:30Z,42.805,6.029,13.3004,4.60023,2470.427,2021-2-12T12:26:34Z
2021-02-12T10:28:33Z,42.805,6.029,13.3015,4.60064,2470.404,2021-2-12T12:29:37Z
2021-02-12T10:31:37Z,42.805,6.029,13.3001,4.60098,2470.427,2021-2-12T12:32:40Z
2021-02-12T10:34:40Z,42.805,6.029,13.3014,4.60055,2470.413,2021-2-12T12:35:43Z
2021-02-12T10:37:43Z,42.805,6.029,13.3006,4.60047,2470.404,2021-2-12T12:38:47Z
2021-02-12T10:40:46Z,42.805,6.029,13.3009,4.60060,2470.404,2021-2-12T12:41:50Z
2021-02-12T10:43:49Z,42.805,6.029,13.3018,4.60062,2470.39,2021-2-12T12:44:53Z
2021-02-12T10:46:52Z,42.805,6.029,13.2995,4.60035,2470.413,2021-2-12T12:47:56Z
2021-02-12T10:49:55Z,42.805,6.029,13.3005,4.60030,2470.39,2021-2-12T12:50:59Z
2021-02-12T10:52:58Z,42.805,6.029,13.3000,4.60027,2470.39,2021-2-12T12:54:02Z
2021-02-12T10:56:02Z,42.805,6.029,13.3002,4.60045,2470.39,2021-2-12T12:57:05Z
2021-02-12T10:59:05Z,42.805,6.029,13.3005,4.60040,2470.39,2021-2-12T13:00:08Z
2021-02-12T11:02:08Z,42.805,6.029,13.2998,4.60039,2470.366,2021-2-12T13:03:12Z
2021-02-12T11:05:11Z,42.805,6.029,13.3000,4.60019,2470.38,2021-2-12T13:06:15Z
2021-02-12T11:08:14Z,42.805,6.029,13.3001,4.60027,2470.366,2021-2-12T13:09:18Z
2021-02-12T11:11:17Z,42.805,6.029,13.2997,4.60019,2470.38,2021-2-12T13:12:21Z
2021-02-12T11:14:20Z,42.805,6.029,13.2999,4.60030,2470.38,2021-2-12T13:15:24Z
2021-02-12T11:17:23Z,42.805,6.029,13.2992,4.60043,2470.38,2021-2-12T13:18:27Z
2021-02-12T11:20:27Z,42.805,6.029,13.2992,4.60033,2470.366,2021-2-12T13:21:30Z
2021-02-12T11:23:30Z,42.805,6.029,13.2999,4.60046,2470.343,2021-2-12T13:24:33Z
2021-02-12T11:26:33Z,42.805,6.029,13.3004,4.60062,2470.343,2021-2-12T13:27:37Z
2021-02-12T11:29:36Z,42.805,6.029,13.3006,4.60029,2470.38,2021-2-12T13:30:40Z
2021-02-12T11:32:39Z,42.805,6.029,13.2996,4.60038,2470.334,2021-2-12T13:33:43Z
2021-02-12T11:35:42Z,42.805,6.029,13.3000,4.60047,2470.366,2021-2-12T13:36:46Z
2021-02-12T11:38:45Z,42.805,6.029,13.3001,4.60042,2470.334,2021-2-12T13:39:49Z
2021-02-12T11:41:49Z,42.805,6.029,13.3008,4.60032,2470.343,2021-2-12T13:42:52Z
2021-02-12T11:44:52Z,42.805,6.029,13.2993,4.60049,2470.32,2021-2-12T13:45:55Z
2021-02-12T11:47:55Z,42.805,6.029,13.2993,4.60047,2470.334,2021-2-12T13:48:58Z
2021-02-12T11:50:58Z,42.805,6.029,13.2999,4.60032,2470.32,2021-2-12T13:52:02Z
2021-02-12T11:54:01Z,42.805,6.029,13.3001,4.60039,2470.357,2021-2-12T13:55:05Z
2021-02-12T11:57:04Z,42.805,6.029,13.3003,4.60081,2470.357,2021-2-12T13:58:08Z
2021-02-12T12:00:07Z,42.805,6.029,13.3019,4.60081,2470.32,2021-2-12T14:01:11Z
2021-02-12T12:03:10Z,42.805,6.029,13.2996,4.60050,2470.297,2021-2-12T14:04:14Z
2021-02-12T12:06:14Z,42.805,6.029,13.3000,4.60046,2470.334,2021-2-12T14:07:17Z
2021-02-12T12:09:17Z,42.805,6.029,13.2998,4.60044,2470.334,2021-2-12T14:10:20Z
2021-02-12T12:12:20Z,42.805,6.029,13.3012,4.60099,2470.38,2021-2-12T14:13:23Z
2021-02-12T12:15:23Z,42.805,6.029,13.3001,4.60046,2470.31,2021-2-12T14:16:27Z
2021-02-12T12:18:26Z,42.805,6.029,13.3002,4.60039,2470.297,2021-2-12T14:19:30Z
2021-02-12T12:21:29Z,42.805,6.029,13.2996,4.60036,2470.357,2021-2-12T14:22:33Z
2021-02-12T12:24:32Z,42.805,6.029,13.3000,4.60032,2470.343,2021-2-12T14:25:36Z
2021-02-12T12:27:35Z,42.805,6.029,13.3000,4.60042,2470.31,2021-2-12T14:28:39Z
2021-02-12T12:30:39Z,42.805,6.029,13.2996,4.60047,2470.32,2021-2-12T14:31:42Z
2021-02-12T12:33:42Z,42.805,6.029,13.3003,4.60027,2470.287,2021-2-12T14:34:45Z
2021-02-12T12:36:45Z,42.805,6.029,13.2997,4.60040,2470.31,2021-2-12T14:37:49Z
2021-02-12T12:39:48Z,42.805,6.029,13.2992,4.60019,2470.273,2021-2-12T14:40:52Z
2021-02-12T12:42:51Z,42.805,6.029,13.2995,4.60017,2470.273,2021-2-12T14:43:55Z
2021-02-12T12:45:54Z,42.805,6.029,13.2997,4.60027,2470.273,2021-2-12T14:46:58Z
2021-02-12T12:48:57Z,42.805,6.029,13.2997,4.60026,2470.25,2021-2-12T14:50:01Z
2021-02-12T12:52:01Z,42.805,6.029,13.2995,4.60059,2470.31,2021-2-12T14:53:04Z
2021-02-12T12:55:04Z,42.805,6.029,13.2993,4.60026,2470.297,2021-2-12T14:56:07Z
2021-02-12T12:58:07Z,42.805,6.029,13.3006,4.60048,2470.273,2021-2-12T14:59:10Z
2021-02-12T13:01:10Z,42.805,6.029,13.3001,4.60041,2470.287,2021-2-12T15:02:14Z
2021-02-12T13:04:13Z,42.805,6.029,13.2996,4.60039,2470.273,2021-2-12T15:05:17Z
2021-02-12T13:07:16Z,42.805,6.029,13.2996,4.60067,2470.297,2021-2-12T15:08:20Z
2021-02-12T13:10:19Z,42.805,6.029,13.2989,4.60031,2470.25,2021-2-12T15:11:23Z
2021-02-12T13:13:22Z,42.805,6.029,13.2990,4.60023,2470.287,2021-2-12T15:14:26Z
2021-02-12T13:16:26Z,42.805,6.029,13.2995,4.60023,2470.264,2021-2-12T15:17:29Z
2021-02-12T13:19:29Z,42.805,6.029,13.2990,4.60031,2470.273,2021-2-12T15:20:32Z
2021-02-12T13:22:32Z,42.805,6.029,13.2993,4.60021,2470.273,2021-2-12T15:23:35Z
2021-02-12T13:25:35Z,42.805,6.029,13.2996,4.60021,2470.25,2021-2-12T15:26:39Z
2021-02-12T13:28:38Z,42.805,6.029,13.2998,4.60031,2470.227,2021-2-12T15:29:42Z
2021-02-12T13:31:41Z,42.805,6.029,13.3005,4.60032,2470.264,2021-2-12T15:32:45Z
2021-02-12T13:34:44Z,42.805,6.029,13.2993,4.60062,2470.24,2021-2-12T15:35:48Z
2021-02-12T13:37:47Z,42.805,6.029,13.2996,4.60052,2470.297,2021-2-12T15:38:51Z
2021-02-12T13:40:51Z,42.805,6.029,13.2991,4.60036,2470.227,2021-2-12T15:41:54Z
2021-02-12T13:43:54Z,42.805,6.029,13.2992,4.60025,2470.273,2021-2-12T15:44:57Z
2021-02-12T13:46:57Z,42.805,6.029,13.2996,4.60052,2470.264,2021-2-12T15:48:00Z
2021-02-12T13:50:00Z,42.805,6.029,13.2988,4.60031,2470.264,2021-2-12T15:51:04Z
2021-02-12T13:53:03Z,42.805,6.029,13.2993,4.60058,2470.227,2021-2-12T15:54:07Z
2021-02-12T13:56:06Z,42.805,6.029,13.3004,4.60041,2470.264,2021-2-12T15:57:10Z
2021-02-12T13:59:09Z,42.805,6.029,13.3008,4.60039,2470.287,2021-2-12T16:00:13Z
2021-02-12T14:02:12Z,42.805,6.029,13.3002,4.60029,2470.31,2021-2-12T16:03:16Z
2021-02-12T14:05:16Z,42.805,6.029,13.2990,4.60024,2470.25,2021-2-12T16:06:19Z
2021-02-12T14:08:19Z,42.805,6.029,13.3000,4.60033,2470.264,2021-2-12T16:09:22Z
2021-02-12T14:11:22Z,42.805,6.029,13.2991,4.60014,2470.227,2021-2-12T16:12:25Z
2021-02-12T14:14:25Z,42.805,6.029,13.2997,4.60040,2470.217,2021-2-12T16:15:29Z
2021-02-12T14:17:28Z,42.805,6.029,13.2999,4.60059,2470.227,2021-2-12T16:18:32Z
2021-02-12T14:20:31Z,42.805,6.029,13.3006,4.60069,2470.203,2021-2-12T16:21:35Z
2021-02-12T14:23:34Z,42.805,6.029,13.2990,4.60036,2470.25,2021-2-12T16:24:38Z
2021-02-12T14:26:38Z,42.805,6.029,13.3004,4.60062,2470.217,2021-2-12T16:27:41Z
2021-02-12T14:29:41Z,42.805,6.029,13.3007,4.60053,2470.227,2021-2-12T16:30:44Z
2021-02-12T14:32:44Z,42.805,6.029,13.2995,4.60016,2470.217,2021-2-12T16:33:47Z
2021-02-12T14:35:47Z,42.805,6.029,13.3005,4.60037,2470.227,2021-2-12T16:36:51Z
2021-02-12T14:38:50Z,42.805,6.029,13.2991,4.60011,2470.217,2021-2-12T16:39:54Z
2021-02-12T14:41:53Z,42.805,6.029,13.2995,4.60033,2470.25,2021-2-12T16:42:57Z
2021-02-12T14:44:56Z,42.805,6.029,13.3012,4.60029,2470.203,2021-2-12T16:46:00Z
2021-02-12T14:47:59Z,42.805,6.029,13.2992,4.60063,2470.24,2021-2-12T16:49:03Z
2021-02-12T14:51:02Z,42.805,6.029,13.2993,4.60039,2470.203,2021-2-12T16:52:06Z
2021-02-12T14:54:06Z,42.805,6.029,13.3011,4.60064,2470.24,2021-2-12T16:55:09Z
2021-02-12T14:57:09Z,42.805,6.029,13.2990,4.60030,2470.227,2021-2-12T16:58:12Z
2021-02-12T15:00:12Z,42.805,6.029,13.2994,4.60040,2470.24,2021-2-12T17:01:16Z
2021-02-12T15:03:15Z,42.805,6.029,13.2995,4.60040,2470.18,2021-2-12T17:04:19Z
2021-02-12T15:06:18Z,42.805,6.029,13.3001,4.60041,2470.227,2021-2-12T17:07:22Z
2021-02-12T15:09:21Z,42.805,6.029,13.3002,4.60021,2470.18,2021-2-12T17:10:25Z
2021-02-12T15:12:24Z,42.805,6.029,13.2990,4.60019,2470.217,2021-2-12T17:13:28Z
2021-02-12T15:15:28Z,42.805,6.029,13.2993,4.60031,2470.227,2021-2-12T17:16:32Z